Weather History for Milton, FL

Change the Weather History Date:

Monday, November 26, 2012

  Actual Average (KNSE) Record (KNSE)
Temperature  
Mean Temperature 50 °F -  
Max Temperature 66 °F 65 °F 78 °F (2001)
Min Temperature 34 °F 46 °F 32 °F (2008)
Degree Days  
Heating Degree Days 15    
Moisture  
Dew Point 47 °F    
Average Humidity 76    
Maximum Humidity 93    
Minimum Humidity 53    
Precipitation  
Precipitation 0.00 in - - ()
Sea Level Pressure  
Sea Level Pressure 30.13 in    
Wind  
Wind Speed 3 mph (ESE)    
Max Wind Speed 9 mph    
Max Gust Speed -    
Visibility 10 miles    
Events      
Averages and records for this station are not official NWS values.
T = Trace of Precipitation, MM = Missing Value Source: NWS Daily Summary

Daily Weather History Graph

Daily Weather History Graph

Search for Another Location

Airport:

Trip Planner

Search our weather history database for the weather conditions in past years. The results will help you decide how hot, cold, wet, or windy it might be!

Date:

Astronomy

Nov. 26, 2012 Rise Set
Actual Time 6:24 AM CST 4:46 PM CST
Civil Twilight 5:58 AM CST 5:12 PM CST
Nautical Twilight 5:28 AM CST 5:42 PM CST
Astronomical Twilight 4:59 AM CST 6:11 PM CST
Moon 3:35 PM CST (11/26) 4:38 AM CST (11/26)
Length of Visible Light 11h 14m
Length of Day
10h 22m
Waxing Gibbous, 97% of the Moon is Illuminated
Nov 26
Waxing Gibbous
Nov 28
Full
Dec 6
Last Quarter
Dec 13
New
Dec 19
First Quarter

Hourly Weather History & Observations

Time (CST) Temp. Windchill Dew Point Humidity Pressure Visibility Wind Dir Wind Speed Gust Speed Precip Events Conditions
12:56 AM 35.1 °F - 32.0 °F 89% 30.11 in 10.0 mi Calm Calm - N/A   Clear
1:56 AM 35.1 °F - 32.0 °F 89% 30.11 in 10.0 mi Calm Calm - N/A   Clear
2:56 AM 37.0 °F - 33.1 °F 86% 30.11 in 10.0 mi Calm Calm - N/A   Clear
3:56 AM 34.0 °F 29.8 °F 32.0 °F 92% 30.12 in 10.0 mi NE 4.6 mph - N/A   Clear
4:56 AM 39.0 °F 36.8 °F 36.0 °F 89% 30.12 in 10.0 mi NE 3.5 mph - N/A   Clear
5:56 AM 39.9 °F - 36.0 °F 86% 30.14 in 10.0 mi Calm Calm - N/A   Clear
6:56 AM 44.1 °F 41.5 °F 39.9 °F 85% 30.15 in 10.0 mi East 4.6 mph - N/A   Clear
7:56 AM 46.9 °F - 39.9 °F 77% 30.17 in 10.0 mi ENE 5.8 mph - N/A   Clear
8:56 AM 55.9 °F - 42.1 °F 60% 30.18 in 10.0 mi East 5.8 mph - N/A   Clear
9:56 AM 62.1 °F - 45.0 °F 53% 30.17 in 10.0 mi East 5.8 mph - N/A   Clear
10:56 AM 64.9 °F - 48.0 °F 54% 30.16 in 10.0 mi SE 8.1 mph - N/A   Clear
11:56 AM 64.9 °F - 48.0 °F 54% 30.15 in 10.0 mi SE 5.8 mph - N/A   Clear
12:56 PM 66.9 °F - 50.0 °F 54% 30.13 in 10.0 mi ESE 6.9 mph - N/A   Clear
1:56 PM 66.9 °F - 54.0 °F 63% 30.12 in 10.0 mi SSE 9.2 mph - N/A   Partly Cloudy
2:56 PM 66.0 °F - 53.1 °F 63% 30.11 in 10.0 mi SE 6.9 mph - N/A   Mostly Cloudy
3:56 PM 64.9 °F - 55.0 °F 70% 30.11 in 10.0 mi SSE 5.8 mph - N/A   Scattered Clouds
4:56 PM 63.0 °F - 55.0 °F 75% 30.11 in 10.0 mi SE 6.9 mph - N/A   Mostly Cloudy
5:56 PM 62.1 °F - 54.0 °F 75% 30.12 in 10.0 mi SE 4.6 mph - N/A   Mostly Cloudy
6:56 PM 62.1 °F - 55.0 °F 78% 30.13 in 10.0 mi East 3.5 mph - N/A   Clear
7:56 PM 60.1 °F - 55.0 °F 83% 30.14 in 10.0 mi Calm Calm - N/A   Mostly Cloudy
8:56 PM 59.0 °F - 55.0 °F 87% 30.13 in 10.0 mi SE 4.6 mph - N/A   Scattered Clouds
9:56 PM 59.0 °F - 55.9 °F 90% 30.12 in 10.0 mi SE 3.5 mph - N/A   Clear
10:56 PM 57.9 °F - 55.9 °F 93% 30.11 in 10.0 mi SSE 4.6 mph - N/A   Clear
11:56 PM 61.0 °F - 57.9 °F 90% 30.10 in 10.0 mi SSE 5.8 mph - N/A   Mostly Cloudy